When you browse on this site, cookies collect data to enhance your experience and personalize the content and advertising you see.
Visit our Privacy Policy to learn more. By continuing to use the site, you agree to this use of cookies and data.
  • In Hungary
  • List of Countries
  • For 7 days
  • Water Temperature
  • Weather Map
  • News
  • Weather Widgets
  • user-avatar
    Login

    Hourly Weather Vidin

    Today, 17 February, Monday

    Time Temperature Precipitation Wind Pressure Humidity
    00:00 +7°C° 0 mm 1 mps 769 mmHg 74%
    01:00 +6°C° 0 mm 1 mps 769 mmHg 76%
    02:00 +6°C° 0 mm 1 mps 769 mmHg 79%
    03:00 +6°C° 0 mm 1 mps 768 mmHg 80%
    04:00 +5°C° 0 mm 1 mps 768 mmHg 81%
    05:00 +5°C° 0 mm 1 mps 767 mmHg 83%
    06:00 +5°C° 0 mm 1 mps 767 mmHg 83%
    07:00 +5°C° 0 mm 1 mps 767 mmHg 84%
    08:00 +5°C° 0 mm 1 mps 767 mmHg 84%
    09:00 +6°C° 0 mm 1 mps 767 mmHg 78%
    10:00 +7°C° 0 mm 1 mps 767 mmHg 72%
    11:00 +9°C° 0 mm 1 mps 766 mmHg 66%
    12:00 +10°C° 0 mm 1 mps 766 mmHg 61%
    13:00 +11°C° 0 mm 1 mps 765 mmHg 57%
    14:00 +12°C° 0 mm 1 mps 765 mmHg 53%
    15:00 +12°C° 0 mm 1 mps 764 mmHg 53%
    16:00 +12°C° 0 mm 1 mps 764 mmHg 53%
    17:00 +13°C° 0 mm 1 mps 763 mmHg 53%
    18:00 +11°C° 0 mm 0 mps 764 mmHg 57%
    19:00 +10°C° 0 mm 0 mps 764 mmHg 61%
    20:00 +9°C° 0 mm 0 mps 764 mmHg 64%
    21:00 +8°C° 0 mm 0 mps 764 mmHg 66%
    22:00 +8°C° 0 mm 0 mps 763 mmHg 67%
    23:00 +7°C° 0 mm 0 mps 763 mmHg 69%

    Tomorrow, 18 February, Tuesday

    Time Temperature Precipitation Wind Pressure Humidity
    00:00 +7°C° 0 mm 0 mps 763 mmHg 70%
    01:00 +7°C° 0 mm 0 mps 763 mmHg 72%
    02:00 +6°C° 0 mm 0 mps 763 mmHg 73%
    03:00 +6°C° 0 mm 0 mps 763 mmHg 75%
    04:00 +7°C° 0 mm 1 mps 762 mmHg 76%
    05:00 +6°C° 0 mm 1 mps 762 mmHg 77%
    06:00 +6°C° 0 mm 1 mps 762 mmHg 77%
    07:00 +7°C° 0 mm 1 mps 763 mmHg 77%
    08:00 +7°C° 0 mm 1 mps 763 mmHg 76%
    09:00 +8°C° 0 mm 2 mps 763 mmHg 67%
    10:00 +11°C° 0 mm 3 mps 763 mmHg 58%
    11:00 +13°C° 0 mm 4 mps 763 mmHg 48%
    12:00 +14°C° 0 mm 5 mps 763 mmHg 49%
    13:00 +15°C° 0 mm 6 mps 763 mmHg 50%
    14:00 +15°C° 0 mm 7 mps 763 mmHg 51%
    15:00 +14°C° 0 mm 7 mps 762 mmHg 55%
    16:00 +14°C° 0 mm 7 mps 762 mmHg 59%
    17:00 +12°C° 0 mm 7 mps 762 mmHg 62%
    18:00 +11°C° 0 mm 7 mps 763 mmHg 65%
    19:00 +10°C° 0 mm 6 mps 763 mmHg 69%
    20:00 +9°C° 0 mm 6 mps 764 mmHg 72%
    21:00 +9°C° 0 mm 5 mps 764 mmHg 74%
    22:00 +8°C° 0 mm 5 mps 764 mmHg 75%
    23:00 +8°C° 0 mm 4 mps 764 mmHg 77%

    Day after tomorrow, 19 February, Wednesday

    Time Temperature Precipitation Wind Pressure Humidity
    00:00 +7°C° 0 mm 4 mps 764 mmHg 78%
    01:00 +8°C° 0 mm 3 mps 764 mmHg 79%
    02:00 +7°C° 0 mm 3 mps 764 mmHg 81%
    03:00 +7°C° 0 mm 3 mps 764 mmHg 81%
    04:00 +7°C° 0 mm 3 mps 764 mmHg 81%
    05:00 +7°C° 0 mm 2 mps 764 mmHg 81%
    06:00 +6°C° 0 mm 2 mps 763 mmHg 81%
    07:00 +6°C° 0 mm 2 mps 763 mmHg 80%
    08:00 +6°C° 0 mm 2 mps 763 mmHg 80%
    09:00 +7°C° 0 mm 2 mps 763 mmHg 75%
    10:00 +9°C° 0 mm 2 mps 763 mmHg 71%
    11:00 +10°C° 0 mm 3 mps 763 mmHg 66%
    12:00 +10°C° 0 mm 2 mps 762 mmHg 66%
    13:00 +10°C° 0 mm 2 mps 761 mmHg 66%
    14:00 +10°C° 0 mm 2 mps 761 mmHg 66%
    15:00 +10°C° 0.1 mm 2 mps 760 mmHg 69%
    16:00 +10°C° 0.1 mm 2 mps 760 mmHg 72%
    17:00 +9°C° 0.1 mm 2 mps 759 mmHg 75%
    18:00 +9°C° 0.1 mm 2 mps 759 mmHg 79%
    19:00 +8°C° 0.1 mm 2 mps 759 mmHg 82%
    20:00 +9°C° 0.1 mm 1 mps 759 mmHg 85%
    21:00 +9°C° 0.1 mm 1 mps 759 mmHg 87%
    22:00 +8°C° 0.1 mm 2 mps 758 mmHg 88%
    23:00 +7°C° 0.1 mm 2 mps 758 mmHg 90%

    20 February, Thursday

    Time Temperature Precipitation Wind Pressure Humidity
    00:00 +7°C° 0.1 mm 2 mps 758 mmHg 90%
    01:00 +7°C° 0.1 mm 2 mps 758 mmHg 90%
    02:00 +7°C° 0.1 mm 3 mps 758 mmHg 89%
    03:00 +6°C° 0.1 mm 4 mps 758 mmHg 86%
    04:00 +6°C° 0.1 mm 5 mps 758 mmHg 83%
    05:00 +4°C° 0.1 mm 7 mps 758 mmHg 79%
    06:00 +4°C° 0.1 mm 7 mps 759 mmHg 75%
    07:00 +4°C° 0.1 mm 8 mps 759 mmHg 72%
    08:00 +4°C° 0.1 mm 8 mps 759 mmHg 68%
    09:00 +4°C° 0 mm 8 mps 759 mmHg 64%
    10:00 +5°C° 0 mm 8 mps 760 mmHg 60%
    11:00 +5°C° 0 mm 9 mps 760 mmHg 56%
    12:00 +6°C° 0 mm 8 mps 760 mmHg 55%
    13:00 +6°C° 0 mm 8 mps 760 mmHg 54%
    14:00 +6°C° 0 mm 8 mps 760 mmHg 53%
    15:00 +6°C° 0 mm 8 mps 760 mmHg 55%
    16:00 +6°C° 0 mm 8 mps 760 mmHg 57%
    17:00 +5°C° 0 mm 7 mps 760 mmHg 60%
    18:00 +5°C° 0.1 mm 7 mps 761 mmHg 60%
    19:00 +5°C° 0.1 mm 6 mps 761 mmHg 60%
    20:00 +5°C° 0.1 mm 5 mps 762 mmHg 60%
    21:00 +5°C° 0 mm 5 mps 762 mmHg 62%
    22:00 +5°C° 0 mm 4 mps 763 mmHg 64%
    23:00 +4°C° 0 mm 3 mps 763 mmHg 66%

    21 February, Friday

    Time Temperature Precipitation Wind Pressure Humidity
    00:00 +5°C° 0 mm 2 mps 764 mmHg 67%
    01:00 +4°C° 0 mm 2 mps 764 mmHg 68%
    02:00 +4°C° 0 mm 2 mps 765 mmHg 70%
    03:00 +4°C° 0 mm 2 mps 765 mmHg 70%
    04:00 +3°C° 0 mm 2 mps 765 mmHg 71%
    05:00 +3°C° 0 mm 2 mps 765 mmHg 71%
    06:00 +3°C° 0 mm 2 mps 766 mmHg 72%
    07:00 +3°C° 0 mm 2 mps 766 mmHg 72%
    08:00 +3°C° 0 mm 2 mps 766 mmHg 73%
    15:00 +10°C° 0 mm 4 mps 766 mmHg 39%
    16:00 +10°C° 0 mm 4 mps 766 mmHg 40%
    17:00 +9°C° 0 mm 5 mps 766 mmHg 40%
    18:00 +8°C° 0 mm 5 mps 766 mmHg 45%
    19:00 +7°C° 0 mm 5 mps 767 mmHg 49%
    20:00 +5°C° 0 mm 5 mps 767 mmHg 54%
    21:00 +5°C° 0 mm 5 mps 767 mmHg 53%
    22:00 +5°C° 0 mm 5 mps 768 mmHg 53%
    23:00 +5°C° 0 mm 5 mps 768 mmHg 52%

    22 February, Saturday

    Time Temperature Precipitation Wind Pressure Humidity
    00:00 +4°C° 0 mm 6 mps 768 mmHg 52%
    01:00 +4°C° 0 mm 7 mps 768 mmHg 52%
    02:00 +4°C° 0 mm 8 mps 768 mmHg 52%
    03:00 +2°C° 0 mm 8 mps 768 mmHg 56%
    04:00 +2°C° 0 mm 8 mps 768 mmHg 60%
    05:00 +2°C° 0 mm 8 mps 768 mmHg 64%
    06:00 +2°C° 0 mm 8 mps 769 mmHg 64%
    07:00 +1°C° 0 mm 8 mps 769 mmHg 65%
    08:00 +1°C° 0 mm 8 mps 770 mmHg 65%
    09:00 +4°C° 0 mm 7 mps 770 mmHg 59%
    10:00 +5°C° 0 mm 7 mps 770 mmHg 52%
    11:00 +8°C° 0 mm 7 mps 770 mmHg 46%
    12:00 +9°C° 0 mm 6 mps 770 mmHg 43%
    13:00 +9°C° 0 mm 6 mps 770 mmHg 39%
    14:00 +10°C° 0 mm 5 mps 770 mmHg 36%
    15:00 +10°C° 0 mm 5 mps 769 mmHg 37%
    16:00 +9°C° 0 mm 5 mps 769 mmHg 38%
    17:00 +9°C° 0 mm 5 mps 769 mmHg 40%
    18:00 +8°C° 0 mm 4 mps 769 mmHg 43%
    19:00 +8°C° 0 mm 4 mps 769 mmHg 47%
    20:00 +7°C° 0 mm 4 mps 770 mmHg 50%
    21:00 +6°C° 0 mm 4 mps 770 mmHg 51%
    22:00 +6°C° 0 mm 4 mps 770 mmHg 52%
    23:00 +7°C° 0 mm 3 mps 769 mmHg 53%
    Show more